Weather in Rytkuchi

Russia / Chukotka Autonomous Okrug     68˚53′48″N   170˚42′55″E
temp.,
°C
wind,
m/s
gust,
m/s
humid.,
%
clouds,
%
prec.,
mm/h
press.,
hPa
HPBL,
m
17 january, sun
sun1700:00−25˚ene1188100 0.0 102420
03:00−25˚n1190100 0.0 102420
06:00−26˚nne1288100 0.0 102521
09:00−28˚ne1190100 0.0 102619
12:00−30˚ese229395 0.0 102719
15:00−31˚se229581 0.0 102720
18:00−31˚se129490 0.0 102719
21:00−32˚s119779 0.0 102819
18 january, mon
mon1800:00−32˚ssw119982 0.0 102919
03:00−32˚ssw1199100 0.0 102819
06:00−32˚s1199100 0.1 102919
09:00−33˚sse1198100 0.0 102919
12:00−34˚sse1198100 0.1 102919
15:00−35˚sse1199100 0.0 102919
18:00−36˚sse129885 0.0 102919
21:00−36˚sse12970 0.0 102919
19 january, tue
tue1900:00−37˚s12970 0.0 102919
03:00−37˚sse11980 0.0 102719
06:00−37˚s11981 0.0 102618
09:00−37˚sw119926 0.0 102519
12:00−36˚sw1110059 0.0 102434
15:00−35˚ssw01100100 0.0 102249
18:00−34˚ese1199100 0.1 1022150
21:00−34˚ese2299100 0.1 1021188
20 january, wed
wed2000:00−33˚ene1399100 0.1 1020194
03:00−32˚nne1499100 0.1 1019224
06:00−29˚nw5996100 0.2 1018475
09:00−29˚nw81196100 0.4 1018547
12:00−30˚nw81198100 0.8 1018494
15:00−30˚nw81197100 0.3 1018455
18:00−30˚wnw71095100 0.4 1018453
21:00−30˚nw6995100 0.1 1019446
21 january, thu
thu2100:00−30˚nw5895100 0.1 1020454
03:00−31˚wnw3597100 0.1 1021152
06:00−32˚wnw2398100 0.1 102263
09:00−33˚w1299100 0.0 102327
12:00−34˚nnw01100100 0.1 102419
15:00−35˚ne1199100 0.0 102419
18:00−35˚ne119866 0.0 102519
21:00−35˚nnw33970 0.0 102538